[[{"header":{"parameterUnit":"m.s-1","parameterCategory":1,"la1":30.2992,"la2":30.254,"lo1":-89.0895,"lo2":-89.0443,"dy":0.0025,"dx":0.0025,"nx":19,"ny":19,"refTime":"2026-04-05T03:00:00:Z","depth":0,"parameterNumber":2,"parameterNumberName":"U-component_of_WINDS"},"data":[0,0,0,-0.5616,-0.5617,-0.5674,-0.5674,-0.575,-0.5751,0,0,0,0,0,0,0,0,0,0,0,-0.5602,-0.5602,-0.5616,-0.5617,-0.5674,-0.5674,-0.575,-0.5751,0,0,0,0,0,0,0,0,0,0,0,-0.5601,-0.5602,-0.5603,-0.5618,-0.5674,-0.5674,-0.575,-0.5706,0,0,0,0,0,0,0,0,0,0,-0.565,-0.564,-0.5602,-0.5603,-0.5618,-0.5674,-0.5674,-0.5704,-0.5709,-0.5726,0,-0.5743,0,-0.5748,-0.5756,-0.5757,0,0,0,-0.5616,-0.5636,-0.5648,-0.5603,-0.5618,-0.5673,-0.5648,-0.5706,-0.5712,-0.5733,-0.5744,-0.5746,-0.5749,-0.5757,-0.5757,-0.5864,-0.5865,0,0,-0.5613,-0.5613,-0.5645,-0.5652,-0.5643,-0.5646,-0.565,-0.571,-0.5722,-0.5744,-0.5748,-0.5751,-0.5757,-0.5758,-0.5864,-0.5864,0,0,0,-0.5605,-0.5611,-0.5623,-0.5649,-0.5659,-0.5648,-0.5652,-0.5719,-0.5723,-0.5749,-0.5751,-0.5758,-0.5759,-0.5863,-0.5864,-0.5894,0,0,0,-0.5603,-0.5607,-0.5621,-0.5622,-0.5658,-0.569,-0.566,-0.5718,-0.5725,-0.5751,-0.5758,-0.576,-0.5862,-0.5864,-0.5891,-0.5908,0,0,0,-0.5597,-0.5606,-0.5615,-0.5622,-0.5646,-0.5689,-0.5696,-0.572,-0.5727,-0.5757,-0.576,-0.5862,-0.5863,-0.5889,-0.5905,-0.5937,0,0,0,-0.5592,-0.5641,-0.5615,-0.5671,-0.5646,-0.5706,-0.5695,-0.574,-0.5769,-0.5758,-0.5863,-0.5864,-0.5889,-0.5903,-0.5935,-0.5964,-0.5976,0,0,-0.5654,-0.5648,-0.5681,-0.566,-0.5725,-0.5697,-0.5767,-0.5793,-0.5795,-0.5841,-0.5844,-0.5892,-0.5904,-0.5936,-0.6043,-0.6053,0,0,0,-0.5701,-0.5724,-0.5741,-0.5769,-0.5789,-0.5808,-0.5824,-0.5833,-0.5872,-0.5819,-0.5912,-0.5919,-0.5938,-0.5952,-0.596,-0.5976,-0.587,-0.587,-0.587,-0.5791,-0.579,-0.5844,-0.5851,-0.5877,-0.5892,-0.5914,-0.5929,-0.5921,-0.5943,-0.5957,-0.6022,-0.6039,-0.6045,-0.6062,-0.5972,-0.5972,-0.5972,-0.5972,-0.5882,-0.5916,-0.5903,-0.5951,-0.5951,-0.5991,-0.6007,-0.6,-0.6038,-0.6012,-0.6028,-0.6,-0.6056,-0.607,-0.5975,-0.5974,-0.5974,-0.5974,-0.5974,-0.5942,-0.5958,-0.5968,-0.6008,-0.6038,-0.6042,-0.6079,-0.6077,-0.6075,-0.6091,-0.6106,-0.6106,-0.6105,-0.6098,-0.6098,-0.6098,-0.6099,-0.6099,-0.6099,-0.6001,-0.6011,-0.6042,-0.6067,-0.6084,-0.6107,-0.6121,-0.6138,-0.6156,-0.6152,-0.6152,-0.6142,-0.606,-0.6041,-0.6103,-0.6102,-0.6101,-0.6101,-0.6101,-0.6096,-0.6074,-0.6122,-0.6139,-0.6168,-0.6198,-0.6194,-0.6229,-0.6242,-0.626,-0.6246,-0.6186,-0.618,-0.6174,-0.6157,-0.6246,-0.6246,-0.6246,-0.6246,-0.6147,-0.6143,-0.6192,-0.6219,-0.6245,-0.6247,-0.6301,-0.6312,-0.6321,-0.6329,-0.6315,-0.6293,-0.6286,-0.6285,-0.6276,-0.626,-0.6373,-0.6373,-0.6373,-0.6206,-0.6204,-0.6251,-0.6259,-0.6281,-0.6301,-0.6352,-0.6384,-0.6388,-0.6379,-0.6336,-0.633,-0.6294,-0.6282,-0.6273,-0.6259,-0.6231,0,0]},{"header":{"parameterUnit":"m.s-1","parameterCategory":1,"la1":30.2992,"la2":30.254,"lo1":-89.0895,"lo2":-89.0443,"dy":0.0025,"dx":0.0025,"nx":19,"ny":19,"refTime":"2026-04-05T03:00:00:Z","depth":0,"parameterNumber":3,"parameterNumberName":"V-component_of_WINDS"},"data":[0,0,0,-5.3499,-5.3501,-5.3592,-5.3592,-5.3714,-5.3716,0,0,0,0,0,0,0,0,0,0,0,-5.3479,-5.348,-5.3499,-5.3501,-5.3592,-5.3592,-5.3714,-5.3716,0,0,0,0,0,0,0,0,0,0,0,-5.3478,-5.348,-5.3481,-5.3502,-5.3592,-5.3592,-5.3714,-5.3643,0,0,0,0,0,0,0,0,0,0,-5.3553,-5.3542,-5.3479,-5.3481,-5.3502,-5.3592,-5.3592,-5.3639,-5.3647,-5.3677,0,-5.3708,0,-5.3714,-5.3724,-5.3725,0,0,0,-5.3495,-5.3535,-5.3554,-5.3481,-5.3503,-5.3591,-5.3549,-5.3643,-5.3652,-5.3688,-5.371,-5.3714,-5.3716,-5.3725,-5.3726,-5.3928,-5.3929,0,0,-5.349,-5.3498,-5.3548,-5.356,-5.355,-5.3546,-5.3552,-5.3649,-5.3672,-5.371,-5.3717,-5.3718,-5.3726,-5.3727,-5.3926,-5.3928,0,0,0,-5.348,-5.3494,-5.3511,-5.3556,-5.3572,-5.3549,-5.3556,-5.3667,-5.3672,-5.3718,-5.372,-5.3727,-5.3729,-5.3925,-5.3927,-5.3996,0,0,0,-5.3477,-5.3488,-5.3509,-5.3514,-5.357,-5.3621,-5.3572,-5.3666,-5.3676,-5.3719,-5.3727,-5.373,-5.3924,-5.3926,-5.3991,-5.4026,0,0,0,-5.3471,-5.3488,-5.3503,-5.3514,-5.3554,-5.3619,-5.363,-5.3668,-5.3678,-5.3725,-5.373,-5.3923,-5.3926,-5.3987,-5.4019,-5.4083,0,0,0,-5.3465,-5.356,-5.3505,-5.3612,-5.3553,-5.3663,-5.3629,-5.3709,-5.3758,-5.3728,-5.3924,-5.3927,-5.3985,-5.4015,-5.4078,-5.4137,-5.4163,0,0,-5.3589,-5.3576,-5.3638,-5.3591,-5.3713,-5.3648,-5.3779,-5.3814,-5.381,-5.3888,-5.3893,-5.3993,-5.4019,-5.4082,-5.4304,-5.4324,0,0,0,-5.368,-5.3725,-5.3756,-5.3805,-5.3838,-5.3868,-5.3884,-5.3898,-5.3964,-5.3853,-5.4032,-5.4048,-5.4084,-5.4112,-5.4129,-5.416,-5.394,-5.394,-5.394,-5.3864,-5.3858,-5.3962,-5.3967,-5.4015,-5.4033,-5.407,-5.4091,-5.4067,-5.411,-5.4133,-5.4269,-5.4302,-5.4315,-5.4347,-5.4164,-5.4164,-5.4164,-5.4165,-5.4045,-5.4109,-5.408,-5.4171,-5.4163,-5.4237,-5.4259,-5.424,-5.4307,-5.425,-5.4282,-5.422,-5.4338,-5.4365,-5.417,-5.4169,-5.4168,-5.4168,-5.4167,-5.4165,-5.4194,-5.4213,-5.4285,-5.4341,-5.4342,-5.441,-5.44,-5.439,-5.4421,-5.4445,-5.4443,-5.4441,-5.4434,-5.4434,-5.4435,-5.4435,-5.4435,-5.4436,-5.4281,-5.43,-5.436,-5.4406,-5.4437,-5.4477,-5.4498,-5.4528,-5.4558,-5.4545,-5.4545,-5.4518,-5.4351,-5.4309,-5.4443,-5.4442,-5.4441,-5.444,-5.4439,-5.4466,-5.4424,-5.4516,-5.4549,-5.4603,-5.466,-5.4648,-5.471,-5.4733,-5.4767,-5.4734,-5.4613,-5.4597,-5.4583,-5.4548,-5.4735,-5.4735,-5.4735,-5.4735,-5.4566,-5.4559,-5.4653,-5.4706,-5.4756,-5.4756,-5.486,-5.4878,-5.4889,-5.4902,-5.4874,-5.4827,-5.4814,-5.4806,-5.4787,-5.4754,-5.499,-5.499,-5.4991,-5.468,-5.4677,-5.4769,-5.4783,-5.4826,-5.4862,-5.496,-5.502,-5.5023,-5.5001,-5.4913,-5.4902,-5.4827,-5.4803,-5.4776,-5.4748,-5.4687,0,0]}]]